STARLINK-5757, 55580

Orbit data source: Space-Track

STARLINK-5757, 55580 is a payload satellite owned by SpaceX/Seattle (US) in LEO that was launched on Sun, 12 Feb 2023 UTC via an FALCON 9 launch vehicle from the Air Force Eastern Test Range (AFETR). Payload-class satellites include a variety of spacecraft equipped with specific instruments for various scientific and technological missions. These include communications satellites like Starlink; space stations such as the ISS; scientific satellites like the Hubble; Earth observation satellites from companies like Planet Labs, Umbra, and HawkEye 360; GPS; miniature CubeSats for education and research; and military/defense satellites.

Loading next visibility...
Identifier
55580, 2023-020M
Orbit
LEO
Country
Flag of USUS
Related business
Manufacturer
SpaceX/Seattle
Mission
Operational Commercial Communications
Bus & Motor
STARLINK, Unknown motor
Mass
305 kg wet, ~290 kg dry
Launch date (UTC)
2023-02-12 (3 years ago)
Launch vehicle
FALCON 9
Launch site
Air Force Eastern Test Range (AFETR)
Object type
Payload
Rocket body
Debris
Shape & HBR
Box + 1 Pan, 10.1 m
Radar Cross Section
13.562 m², Large (>1 m²)

Expand to show TLE details & history
Last TLE update: 21 hours ago

TLE from 21 hours ago
0 STARLINK-5757
1 55580U 23020M   26061.59413468  .00001108  00000-0  97042-4 0  9991
2 55580  43.0058  17.0602 0001608 268.5343  91.5315 15.02542829168150
Epoch: 2026-03-02T14:15Z
TLE epoch observation values (Epoch: 2026-03-02T14:15:33.236Z)
Latitude
-0.00003°
Longitude
2.78638°
Altitude
558.867 km
Speed
7.584 km/s
True Right ascension
01h 08m 14s
True Declination
0° 00' 00"
Sunlit
Object was in daylight at epoch
Visualization orbit readout
Latitude
Unknown
Longitude
Unknown
Altitude
Unknown
Speed
Unknown
Apparent Right ascension
Unknown
Apparent Declination
Unknown
Sunlit
N/A
Visualization observer readout
Local Sidereal Time
14:46:34
Azimuth
Unknown
Elevation
Unknown
Doppler factor
Unknown
Orbital elements
Apogee altitude
562.097 km
Perigee altitude
559.866 km
Semi-major axis
6,939.118 km
Eccentricity
0.00016
Inclination
43.0058°
RAAN
17.0602°
Arg. of periapsis
268.5343°
True anomaly
91.54992°
Mean anomaly
91.5315°
Eccentric anomaly
91.54071°
Mean motion
3.7548 °/min
Orbital period
95.88 mins
BSTAR
0.000097042
Loading maneuver chart data...
Computing Atmospheric mass density...

Documentation

Showing up to 5 results
|